TimeCDT,TemperatureF,Dew PointF,Humidity,Sea Level PressureIn,VisibilityMPH,Wind Direction,Wind SpeedMPH,Gust SpeedMPH,PrecipitationIn,Events,Conditions,WindDirDegrees,DateUTC
12:53 AM,64.0,60.1,87,30.08,9.0,ENE,3.5,-,N/A,,Clear,70,2012-10-05 05:53:00
1:53 AM,63.0,60.1,90,30.09,8.0,Calm,Calm,-,N/A,,Clear,0,2012-10-05 06:53:00
3:53 AM,66.9,62.1,84,30.07,8.0,East,3.5,-,N/A,,Overcast,90,2012-10-05 08:53:00
4:53 AM,66.9,62.1,84,30.06,8.0,East,3.5,-,N/A,,Overcast,80,2012-10-05 09:53:00
5:53 AM,66.9,62.1,84,30.06,8.0,East,3.5,-,N/A,,Overcast,80,2012-10-05 10:53:00
6:53 AM,68.0,62.1,81,30.07,8.0,Calm,Calm,-,N/A,,Overcast,0,2012-10-05 11:53:00
7:53 AM,66.9,63.0,87,30.06,5.0,Calm,Calm,-,N/A,,Mostly Cloudy,0,2012-10-05 12:53:00
8:53 AM,70.0,63.0,78,30.06,7.0,Calm,Calm,-,N/A,,Overcast,0,2012-10-05 13:53:00
9:53 AM,73.0,64.9,76,30.06,8.0,SSW,8.1,-,N/A,,Overcast,210,2012-10-05 14:53:00
10:53 AM,77.0,68.0,74,30.04,9.0,SW,6.9,17.3,N/A,,Overcast,220,2012-10-05 15:53:00
11:01 AM,78.1,68.0,71,30.05,9.0,SW,8.1,-,N/A,,Overcast,220,2012-10-05 16:01:00
12:53 PM,78.1,69.1,74,30.01,8.0,WSW,6.9,-,N/A,,Overcast,240,2012-10-05 17:53:00
1:53 PM,75.9,70.0,82,29.99,6.0,West,3.5,-,0.00,Rain,Light Rain,280,2012-10-05 18:53:00
2:18 PM,75.0,71.1,87,30.00,2.0,WNW,3.5,-,0.01,Rain,Light Rain,300,2012-10-05 19:18:00
2:27 PM,75.9,72.0,87,29.99,6.0,Calm,Calm,-,0.01,,Overcast,0,2012-10-05 19:27:00
2:46 PM,79.0,73.0,82,29.98,6.0,West,3.5,-,0.01,,Haze,270,2012-10-05 19:46:00
2:53 PM,78.1,72.0,81,29.97,7.0,West,4.6,-,0.01,,Mostly Cloudy,270,2012-10-05 19:53:00
3:16 PM,80.1,72.0,76,29.97,7.0,West,4.6,-,N/A,,Overcast,270,2012-10-05 20:16:00
3:53 PM,80.1,71.1,74,29.96,8.0,WNW,10.4,-,0.00,,Mostly Cloudy,290,2012-10-05 20:53:00
4:02 PM,79.0,71.1,77,29.97,7.0,WNW,9.2,-,N/A,,Scattered Clouds,290,2012-10-05 21:02:00
4:50 PM,78.8,68.0,69,29.97,7.0,NW,11.5,-,N/A,,Mostly Cloudy,310,2012-10-05 21:50:00
4:53 PM,77.0,68.0,74,29.95,7.0,WNW,10.4,-,N/A,,Mostly Cloudy,300,2012-10-05 21:53:00
5:01 PM,75.9,66.9,74,29.97,8.0,NW,10.4,-,N/A,,Scattered Clouds,310,2012-10-05 22:01:00
5:53 PM,72.0,64.9,78,29.98,8.0,NW,10.4,19.6,N/A,,Overcast,320,2012-10-05 22:53:00
6:53 PM,63.0,57.0,81,30.01,10.0,NNW,8.1,-,N/A,,Overcast,330,2012-10-05 23:53:00
8:11 PM,62.1,55.9,80,30.04,10.0,NNE,6.9,-,N/A,,Mostly Cloudy,30,2012-10-06 01:11:00
8:45 PM,60.1,54.0,80,30.06,10.0,North,6.9,-,N/A,,Overcast,360,2012-10-06 01:45:00
8:53 PM,60.1,54.0,80,30.05,10.0,NNE,4.6,-,N/A,,Overcast,30,2012-10-06 01:53:00
9:53 PM,59.0,52.0,78,30.06,10.0,North,5.8,-,0.00,,Overcast,10,2012-10-06 02:53:00
10:53 PM,59.0,53.1,81,30.08,10.0,NE,9.2,-,N/A,,Overcast,40,2012-10-06 03:53:00
11:42 PM,57.9,52.0,81,30.10,10.0,NNE,6.9,-,N/A,,Overcast,30,2012-10-06 04:42:00
11:53 PM,57.9,52.0,81,30.09,10.0,NNE,5.8,-,N/A,,Overcast,30,2012-10-06 04:53:00